[[{"header":{"parameterUnit":"m.s-1","parameterCategory":2,"la1":30.2991,"la2":30.254,"lo1":-89.0895,"lo2":-89.0444,"dy":0.0017,"dx":0.0017,"nx":28,"ny":28,"refTime":"2025-05-01T09:00:00:Z","depth":"0","parameterNumber":2,"parameterNumberName":"U-component_of_CURRENTS"},"data":[0,0,0,0,0,0,0,0,0,0,0,0,0,0,0,0,0,0,0,0,0,0,0,0,0,0,0,0,0,0,0,0,0,0,0,0,0,0,0,0,0,0,0,0,0,0,0,0,0,0,0,0,0,0,0,0,0,0,-0.2504,-0.2504,0,-0.2518,-0.2518,-0.2518,-0.2487,-0.2487,-0.2486,-0.2485,-0.244,-0.244,-0.2439,0,0,0,0,0,0,0,0,0,0,0,0,0,-0.2448,-0.2449,-0.2504,-0.2504,-0.2505,-0.2518,-0.2518,-0.2518,-0.2488,-0.2487,-0.2486,-0.2485,-0.244,-0.244,-0.2439,0,0,0,0,0,0,0,0,0,0,0,0,0,-0.2466,-0.245,-0.2504,-0.2493,-0.2492,-0.2518,-0.2518,-0.2518,-0.2488,-0.2487,-0.2485,-0.2484,-0.244,-0.244,-0.2439,-0.2457,0,0,-0.2437,-0.2436,0,0,0,0,0,0,0,0,-0.2465,-0.2468,-0.2494,-0.2494,-0.2493,-0.2502,-0.2482,-0.2495,-0.2488,-0.2487,-0.2485,-0.2484,-0.2458,-0.2455,-0.2458,-0.2455,-0.2453,-0.2437,-0.2436,-0.2436,-0.2436,0,0,0,0,0,0,0,-0.2464,-0.2467,-0.2507,-0.2495,-0.2494,-0.2487,-0.2488,-0.2484,-0.2475,-0.2487,-0.2485,-0.2491,-0.2456,-0.2459,-0.2456,-0.2452,-0.2437,-0.2436,-0.2435,-0.2435,-0.2464,-0.2466,0,0,0,0,0,0,-0.2469,-0.2466,-0.2507,-0.2508,-0.2479,-0.2489,-0.249,-0.2498,-0.2477,-0.2474,-0.2492,-0.249,-0.2461,-0.2457,-0.2455,-0.2477,-0.2436,-0.2435,-0.2435,-0.2463,-0.2465,-0.2466,0,0,0,0,0,0,-0.2468,-0.2473,-0.2506,-0.2489,-0.2493,-0.2491,-0.2501,-0.2499,-0.2497,-0.2482,-0.2477,-0.2491,-0.246,-0.2456,-0.2456,-0.2475,-0.2435,-0.2434,-0.2462,-0.2464,-0.2465,-0.252,0,0,0,0,0,0,-0.2466,-0.2472,-0.2474,-0.2489,-0.2494,-0.2525,-0.2502,-0.25,-0.2504,-0.25,-0.248,-0.2474,-0.2458,-0.2457,-0.2455,-0.2473,-0.2433,-0.246,-0.2463,-0.2465,-0.2516,-0.2523,-0.2529,0,0,0,0,0,-0.2464,-0.2475,-0.2474,-0.2478,-0.2499,-0.2526,-0.2527,-0.252,-0.2505,-0.2512,-0.2498,-0.2475,-0.247,-0.2458,-0.2455,-0.2473,-0.2459,-0.2462,-0.2465,-0.2513,-0.2522,-0.2529,0,0,0,0,0,0,-0.2447,-0.2473,-0.2472,-0.2488,-0.2507,-0.2521,-0.2524,-0.2524,-0.2519,-0.251,-0.2489,-0.2484,-0.2493,-0.2478,-0.2465,-0.249,-0.2462,-0.2464,-0.25,-0.2508,-0.2514,-0.2511,-0.2433,0,0,0,0,0,-0.2448,-0.2459,-0.2487,-0.2496,-0.2508,-0.2516,-0.2523,-0.2525,-0.2528,-0.2524,-0.2513,-0.2503,-0.2505,-0.2501,-0.2499,-0.2511,-0.2474,-0.2522,-0.2528,-0.2533,-0.253,-0.2505,-0.2509,-0.2475,-0.2475,-0.2475,0,0,-0.2441,-0.2458,-0.2462,-0.2493,-0.2503,-0.2532,-0.2517,-0.2533,-0.2554,-0.252,-0.2533,-0.2523,-0.2514,-0.2529,-0.2532,-0.2516,-0.2521,-0.2537,-0.2541,-0.2535,-0.2509,-0.2512,-0.2514,-0.2477,-0.2477,-0.2476,0,0,-0.2444,-0.2453,-0.2469,-0.2494,-0.2521,-0.2535,-0.2543,-0.2564,-0.2566,-0.2585,-0.2568,-0.2568,-0.257,-0.2568,-0.2568,-0.2608,-0.2557,-0.2611,-0.2638,-0.2614,-0.2616,-0.2618,-0.2558,-0.2554,-0.2613,-0.2613,-0.2613,0,-0.2433,-0.2461,-0.2477,-0.2509,-0.2529,-0.254,-0.2571,-0.2586,-0.2602,-0.2607,-0.2593,-0.2598,-0.2589,-0.2608,-0.2625,-0.2621,-0.2586,-0.2609,-0.2621,-0.2622,-0.2622,-0.2561,-0.2556,-0.2616,-0.2615,-0.2615,-0.2615,0,-0.2456,-0.2482,-0.2496,-0.254,-0.2567,-0.2592,-0.2627,-0.2644,-0.2647,-0.2656,-0.2668,-0.2658,-0.2657,-0.2664,-0.2656,-0.2667,-0.2632,-0.2631,-0.2598,-0.2628,-0.2562,-0.2556,-0.262,-0.2619,-0.2618,-0.2617,0,0,-0.2415,-0.2496,-0.2497,-0.2528,-0.2585,-0.261,-0.2653,-0.269,-0.2703,-0.2715,-0.2723,-0.2739,-0.2721,-0.272,-0.2711,-0.2696,-0.2668,-0.2669,-0.2667,-0.2603,-0.2586,-0.2478,-0.2459,-0.267,-0.2669,-0.2669,-0.2532,0,-0.2422,-0.2485,-0.2526,-0.2582,-0.2618,-0.2656,-0.2694,-0.2729,-0.2742,-0.2753,-0.2748,-0.2752,-0.2749,-0.2741,-0.2732,-0.2686,-0.2656,-0.2703,-0.2572,-0.2568,-0.2462,-0.245,-0.2366,-0.223,-0.2525,-0.2524,-0.2523,0,-0.2424,-0.2469,-0.2528,-0.2608,-0.2625,-0.266,-0.2711,-0.2749,-0.2777,-0.2783,-0.2788,-0.2779,-0.277,-0.2756,-0.2687,-0.2716,-0.2655,-0.2613,-0.2607,-0.2481,-0.2447,-0.2252,-0.2206,-0.22,-0.2512,-0.2513,-0.2513,0,-0.238,-0.2468,-0.2512,-0.254,-0.2632,-0.2657,-0.2698,-0.2745,-0.2768,-0.2791,-0.2792,-0.2786,-0.2757,-0.2713,-0.2628,-0.2659,-0.2521,-0.255,-0.2389,-0.2379,-0.2267,-0.2248,-0.2193,-0.2487,-0.2488,-0.2488,-0.2488,0,-0.2369,-0.24,-0.2493,-0.2516,-0.2557,-0.2634,-0.2668,-0.2707,-0.275,-0.2756,-0.2793,-0.2766,-0.2745,-0.2669,-0.2613,-0.2454,-0.2501,-0.2374,-0.2336,-0.2281,-0.2266,-0.2223,-0.2255,-0.2483,-0.2484,-0.2485,-0.2486,0,-0.2303,-0.2372,-0.2419,-0.2511,-0.2537,-0.2559,-0.2642,-0.266,-0.2718,-0.2722,-0.2727,-0.2728,-0.2625,-0.2569,-0.2458,-0.2398,-0.2235,-0.2215,-0.2129,-0.2084,-0.1947,-0.1985,-0.1867,-0.1816,-0.2027,-0.2024,-0.2021,0,-0.2272,-0.2292,-0.2383,-0.24,-0.2435,-0.2489,-0.2518,-0.2615,-0.2635,-0.2674,-0.2655,-0.2587,-0.248,-0.2279,-0.2169,-0.2017,-0.206,-0.187,-0.1924,-0.1905,-0.1921,-0.1966,-0.1937,-0.1791,-0.1786,-0.1782,-0.1779,0,-0.219,-0.222,-0.2254,-0.2295,-0.233,-0.2377,-0.2431,-0.2452,-0.2544,-0.2529,-0.2466,-0.2383,-0.2214,-0.2006,-0.1839,-0.1759,-0.1839,-0.1786,-0.1801,-0.1748,-0.176,-0.1703,-0.1903,-0.1746,-0.1749,-0.1752,-0.1753,-0.1755,-0.2099,-0.2097,-0.2138,-0.2162,-0.2204,-0.2231,-0.2212,-0.2265,-0.2254,-0.2191,-0.2224,-0.2027,-0.1921,-0.166,-0.1578,-0.1459,-0.1545,-0.1448,-0.1495,-0.1542,-0.1496,-0.1597,-0.1384,-0.1385,-0.1386,-0.1387,-0.1388,0,-0.1973,-0.1984,-0.2002,-0.2027,-0.201,-0.2083,-0.2113,-0.205,-0.1959,-0.19,-0.179,-0.1611,-0.1447,-0.1381,-0.1277,-0.1209,-0.1219,-0.1206,-0.1286,-0.1271,-0.1372,-0.1367,-0.1098,-0.1098,-0.1098,-0.1098,-0.1098,-0.1098,-0.1907,-0.1871,-0.1883,-0.1814,-0.1826,-0.1748,-0.1725,-0.1627,-0.1543,-0.1312,-0.1166,-0.1091,-0.1129,-0.125,-0.119,-0.1137,-0.115,-0.1099,-0.114,-0.1267,-0.1296,-0.1323,-0.1326,-0.1053,-0.1053,-0.1003,-0.1003,-0.1002]},{"header":{"parameterUnit":"m.s-1","parameterCategory":2,"la1":30.2991,"la2":30.254,"lo1":-89.0895,"lo2":-89.0444,"dy":0.0017,"dx":0.0017,"nx":28,"ny":28,"refTime":"2025-05-01T09:00:00:Z","depth":"0","parameterNumber":3,"parameterNumberName":"V-component_of_CURRENTS"},"data":[0,0,0,0,0,0,0,0,0,0,0,0,0,0,0,0,0,0,0,0,0,0,0,0,0,0,0,0,0,0,0,0,0,0,0,0,0,0,0,0,0,0,0,0,0,0,0,0,0,0,0,0,0,0,0,0,0,0,-0.0254,-0.0253,0,-0.0177,-0.0176,-0.0175,-0.0118,-0.0118,-0.0117,-0.0117,0.0008,0.0011,0.0014,0,0,0,0,0,0,0,0,0,0,0,0,0,-0.03,-0.03,-0.0254,-0.0253,-0.0253,-0.0177,-0.0176,-0.0175,-0.0118,-0.0118,-0.0117,-0.0117,0.0007,0.0011,0.0014,0,0,0,0,0,0,0,0,0,0,0,0,0,-0.0256,-0.03,-0.0254,-0.0216,-0.0212,-0.0178,-0.0176,-0.0175,-0.0118,-0.0118,-0.0117,-0.0116,0.0006,0.0011,0.0015,0.0031,0,0,0.0029,0.0031,0,0,0,0,0,0,0,0,-0.0259,-0.0255,-0.0223,-0.0219,-0.0214,-0.0158,-0.0147,-0.0104,-0.0118,-0.0152,-0.0117,-0.0116,-0.0044,-0.0035,-0.0021,0.0037,0.0042,0.0029,0.0032,0.0034,0.0035,0,0,0,0,0,0,0,-0.0262,-0.0257,-0.0222,-0.0222,-0.0217,-0.0185,-0.0179,-0.0138,-0.01,-0.0149,-0.0145,-0.0139,-0.0041,-0.0026,-0.0018,0.0044,0.0029,0.0033,0.0036,0.0037,0.0144,0.0144,0,0,0,0,0,0,-0.0278,-0.0261,-0.0225,-0.022,-0.0237,-0.0185,-0.0178,-0.0175,-0.0102,-0.0091,-0.014,-0.0137,-0.0033,-0.0023,-0.0013,0.0025,0.0034,0.0038,0.004,0.0144,0.0144,0.0144,0,0,0,0,0,0,-0.0279,-0.0276,-0.0228,-0.0239,-0.0231,-0.0185,-0.0183,-0.0174,-0.0159,-0.0095,-0.0083,-0.0133,-0.0033,-0.0019,0.0023,0.003,0.004,0.0044,0.0144,0.0144,0.0144,0.0091,0,0,0,0,0,0,-0.0281,-0.0277,-0.0282,-0.0241,-0.0231,-0.0216,-0.0183,-0.0173,-0.0156,-0.0152,-0.0086,-0.0073,-0.0031,0.0016,0.0027,0.0036,0.0047,0.0144,0.0144,0.0144,0.0093,0.009,0.0087,0,0,0,0,0,-0.0283,-0.0297,-0.0283,-0.0279,-0.024,-0.0216,-0.0209,-0.0172,-0.0157,-0.0155,-0.0107,-0.0076,0.0026,0.0019,0.0033,0.0043,0.0143,0.0144,0.0144,0.0094,0.009,0.0087,0,0,0,0,0,0,-0.032,-0.0291,-0.0275,-0.028,-0.0253,-0.0207,-0.0205,-0.0179,-0.0141,-0.0136,-0.0075,-0.0059,-0.002,0.0016,0.0007,0.0075,0.0091,0.0094,0.0048,0.0045,0.0042,0.0033,0.0051,0,0,0,0,0,-0.0332,-0.0335,-0.0298,-0.0302,-0.0292,-0.0249,-0.0236,-0.0212,-0.0173,-0.0156,-0.0109,-0.0056,-0.0009,0.002,0.0063,0.0099,0.0148,0.0115,0.0112,0.0109,0.0111,0.0194,0.0199,0.0146,0.0146,0.0146,0,0,-0.0348,-0.0333,-0.0333,-0.031,-0.0286,-0.0279,-0.024,-0.0226,-0.0212,-0.0148,-0.0117,-0.0069,-0.0003,0.0038,0.0059,0.0071,0.0148,0.011,0.0107,0.0111,0.0195,0.02,0.0205,0.0146,0.0146,0.0146,0,0,-0.0385,-0.0367,-0.0382,-0.0364,-0.0337,-0.0307,-0.0307,-0.0264,-0.0237,-0.0204,-0.015,-0.0097,-0.0035,0.0023,0.0059,0.0066,0.0125,0.0076,0.0062,0.0142,0.0147,0.0153,0.0211,0.0222,0.008,0.008,0.008,0,-0.0406,-0.0416,-0.0382,-0.0389,-0.0377,-0.0325,-0.0332,-0.0297,-0.0244,-0.0214,-0.0204,-0.0087,-0.0038,0.0038,0.0039,0.0062,0.0107,0.0068,0.0139,0.0145,0.0151,0.021,0.0223,0.0078,0.0078,0.0078,0.0079,0,-0.045,-0.0455,-0.0462,-0.045,-0.0432,-0.0432,-0.038,-0.0352,-0.0314,-0.0268,-0.0196,-0.0122,-0.0047,-0.0023,0.0009,0.0081,0.0098,0.012,0.0145,0.0154,0.0215,0.0229,0.0074,0.0075,0.0076,0.0077,0,0,-0.0503,-0.0497,-0.0498,-0.0502,-0.0465,-0.0455,-0.0425,-0.0374,-0.0341,-0.028,-0.0224,-0.014,-0.0091,-0.0047,0.0013,0.0082,0.0158,0.0112,0.0117,0.0165,0.0323,0.0346,0.0364,0.0193,0.0196,0.0198,0.0343,0,-0.0547,-0.0583,-0.0556,-0.0571,-0.0583,-0.0519,-0.0489,-0.0431,-0.0369,-0.0301,-0.0201,-0.0133,-0.01,-0.006,0.0014,0.0127,0.0195,0.0116,0.0312,0.0317,0.0335,0.0381,0.0424,0.0559,0.0357,0.036,0.0362,0,-0.0598,-0.0614,-0.065,-0.0628,-0.0624,-0.0617,-0.0551,-0.0517,-0.0401,-0.0349,-0.0256,-0.0173,-0.0056,-0.0035,0.0162,0.0109,0.0205,0.0289,0.0297,0.0349,0.0368,0.0522,0.0593,0.0726,0.0384,0.0382,0.0381,0,-0.0662,-0.0673,-0.0705,-0.0703,-0.0671,-0.066,-0.063,-0.0535,-0.0492,-0.0375,-0.0318,-0.0177,-0.0085,0.0047,0.0214,0.0194,0.0432,0.0431,0.0543,0.0545,0.0637,0.0643,0.086,0.0569,0.0569,0.0568,0.0568,0,-0.0725,-0.0745,-0.0741,-0.0761,-0.0776,-0.0724,-0.0703,-0.0647,-0.0545,-0.0469,-0.0351,-0.0246,-0.0057,0.0104,0.0226,0.0435,0.0447,0.0556,0.0596,0.0617,0.0619,0.0782,0.0809,0.0574,0.0573,0.0572,0.0571,0,-0.0793,-0.0793,-0.0829,-0.0818,-0.0815,-0.0827,-0.0771,-0.0739,-0.0637,-0.0529,-0.0489,-0.0277,-0.0058,0.0124,0.0371,0.0469,0.0736,0.0714,0.0712,0.0749,0.0951,0.097,0.1193,0.1281,0.0861,0.0862,0.0864,0,-0.0832,-0.0863,-0.0889,-0.0913,-0.0915,-0.0914,-0.0901,-0.0808,-0.0751,-0.0529,-0.0469,-0.0232,-0.0028,0.0321,0.0531,0.0759,0.0843,0.0917,0.0886,0.0989,0.1042,0.1041,0.1098,0.0987,0.0989,0.0991,0.0993,0,-0.0901,-0.0911,-0.0942,-0.1001,-0.1015,-0.1009,-0.0969,-0.0929,-0.0771,-0.0633,-0.0391,-0.0208,0.0142,0.0454,0.0726,0.0854,0.1009,0.096,0.1096,0.1185,0.1175,0.1268,0.0841,0.1009,0.1008,0.1006,0.1005,0.1005,-0.0941,-0.0986,-0.1029,-0.1077,-0.1095,-0.107,-0.102,-0.0912,-0.0771,-0.0463,-0.0331,0.0048,0.0393,0.0801,0.0932,0.1222,0.1166,0.1315,0.1338,0.1335,0.1403,0.099,0.1177,0.1177,0.1176,0.1176,0.1175,0,-0.0985,-0.1032,-0.1093,-0.1135,-0.1153,-0.1135,-0.1031,-0.0899,-0.0674,-0.035,-0.0067,0.0456,0.0807,0.1111,0.1458,0.1606,0.1625,0.1678,0.1713,0.176,0.1447,0.1436,0.1653,0.1653,0.1653,0.1653,0.1652,0.1652,-0.1008,-0.1081,-0.1116,-0.1166,-0.118,-0.1101,-0.1012,-0.0761,-0.0481,0.0048,0.0467,0.0767,0.112,0.1601,0.1934,0.1958,0.2095,0.2057,0.2134,0.1931,0.1899,0.1868,0.187,0.2174,0.2174,0.246,0.2463,0.2465]}],[{"header":{"parameterUnit":"m.s-1","parameterCategory":2,"la1":30.2991,"la2":30.254,"lo1":-89.0895,"lo2":-89.0444,"dy":0.0017,"dx":0.0017,"nx":28,"ny":28,"refTime":"2025-05-01T09:00:00:Z","depth":"2","parameterNumber":2,"parameterNumberName":"U-component_of_CURRENTS"},"data":[0,0,0,0,0,0,0,0,0,0,0,0,0,0,0,0,0,0,0,0,0,0,0,0,0,0,0,0,0,0,0,0,0,0,0,0,0,0,0,0,0,0,0,0,0,0,0,0,0,0,0,0,0,0,0,0,0,0,-0.2381,-0.2382,0,-0.2395,-0.2395,-0.2395,-0.237,-0.237,-0.2369,-0.2368,-0.2328,-0.2328,-0.2327,0,0,0,0,0,0,0,0,0,0,0,0,0,-0.233,-0.233,-0.2381,-0.2382,-0.2382,-0.2395,-0.2395,-0.2395,-0.237,-0.237,-0.2369,-0.2368,-0.2329,-0.2328,-0.2327,0,0,0,0,0,0,0,0,0,0,0,0,0,-0.2346,-0.2331,-0.2381,-0.2373,-0.2373,-0.2395,-0.2395,-0.2395,-0.2371,-0.237,-0.2369,-0.2368,-0.2329,-0.2328,-0.2327,-0.2341,0,0,-0.2325,-0.2325,0,0,0,0,0,0,0,0,-0.2345,-0.2348,-0.2374,-0.2374,-0.2373,-0.2382,-0.2362,-0.2375,-0.2371,-0.2369,-0.2368,-0.2367,-0.2344,-0.2342,-0.2344,-0.2339,-0.2337,-0.2325,-0.2325,-0.2324,-0.2324,0,0,0,0,0,0,0,-0.2344,-0.2347,-0.2384,-0.2374,-0.2374,-0.2368,-0.2369,-0.2365,-0.2358,-0.2369,-0.2368,-0.2373,-0.2343,-0.2344,-0.2342,-0.2337,-0.2325,-0.2324,-0.2324,-0.2324,-0.235,-0.2351,0,0,0,0,0,0,-0.2349,-0.2346,-0.2384,-0.2385,-0.236,-0.2369,-0.2371,-0.2378,-0.2359,-0.2357,-0.2374,-0.2372,-0.2346,-0.2343,-0.2341,-0.2364,-0.2324,-0.2324,-0.2323,-0.2349,-0.235,-0.2352,0,0,0,0,0,0,-0.2348,-0.2352,-0.2383,-0.2367,-0.2371,-0.2372,-0.238,-0.2379,-0.238,-0.2365,-0.236,-0.2376,-0.2345,-0.2342,-0.2343,-0.2361,-0.2323,-0.2323,-0.2348,-0.2349,-0.2351,-0.2404,0,0,0,0,0,0,-0.2346,-0.2352,-0.2354,-0.2368,-0.2372,-0.2401,-0.2381,-0.238,-0.2386,-0.2383,-0.2365,-0.236,-0.2344,-0.2345,-0.2343,-0.236,-0.2322,-0.2346,-0.2348,-0.235,-0.2401,-0.2408,-0.2413,0,0,0,0,0,-0.2344,-0.2355,-0.2355,-0.2359,-0.2378,-0.2402,-0.2404,-0.2399,-0.2387,-0.2394,-0.2383,-0.2361,-0.2357,-0.2345,-0.2342,-0.236,-0.2345,-0.2348,-0.235,-0.2398,-0.2406,-0.2413,0,0,0,0,0,0,-0.2331,-0.2354,-0.2354,-0.2369,-0.2387,-0.2399,-0.2404,-0.2404,-0.2401,-0.2394,-0.2374,-0.237,-0.2379,-0.2365,-0.2352,-0.2375,-0.2348,-0.235,-0.2386,-0.2393,-0.2399,-0.2397,-0.2321,0,0,0,0,0,-0.2332,-0.2343,-0.2367,-0.2377,-0.2388,-0.2397,-0.2404,-0.2406,-0.2409,-0.2407,-0.2397,-0.2388,-0.239,-0.2386,-0.2383,-0.2395,-0.236,-0.2405,-0.2411,-0.2416,-0.2414,-0.2391,-0.2394,-0.236,-0.236,-0.236,0,0,-0.2326,-0.2342,-0.2346,-0.2375,-0.2384,-0.2411,-0.2398,-0.2415,-0.2434,-0.2403,-0.2417,-0.2409,-0.2398,-0.2412,-0.2415,-0.24,-0.2406,-0.242,-0.2424,-0.2419,-0.2393,-0.2396,-0.2399,-0.2362,-0.2361,-0.2361,0,0,-0.2331,-0.234,-0.2355,-0.2378,-0.2404,-0.2416,-0.2425,-0.2445,-0.2448,-0.2467,-0.2451,-0.2453,-0.2454,-0.2451,-0.2449,-0.2487,-0.244,-0.2491,-0.2517,-0.2495,-0.2497,-0.2499,-0.2446,-0.2442,-0.2492,-0.2493,-0.2493,0,-0.2323,-0.2348,-0.2363,-0.2392,-0.241,-0.2423,-0.245,-0.2465,-0.2481,-0.2486,-0.2476,-0.2481,-0.2472,-0.2487,-0.2504,-0.25,-0.2469,-0.249,-0.2502,-0.2503,-0.2503,-0.2448,-0.2443,-0.2495,-0.2495,-0.2495,-0.2495,0,-0.2344,-0.2368,-0.2381,-0.2421,-0.2446,-0.2469,-0.2501,-0.2519,-0.2523,-0.2532,-0.2546,-0.2537,-0.2535,-0.2542,-0.2535,-0.2545,-0.2514,-0.2512,-0.248,-0.2509,-0.245,-0.2444,-0.25,-0.2499,-0.2498,-0.2497,0,0,-0.2308,-0.2381,-0.2383,-0.2409,-0.2462,-0.2484,-0.2524,-0.2558,-0.2571,-0.2586,-0.2594,-0.261,-0.2596,-0.2594,-0.2586,-0.2573,-0.2551,-0.255,-0.2547,-0.249,-0.2477,-0.2369,-0.2352,-0.2551,-0.2551,-0.2551,-0.2428,0,-0.2315,-0.2371,-0.2408,-0.2457,-0.2488,-0.2524,-0.2559,-0.2592,-0.2606,-0.2618,-0.2616,-0.2621,-0.262,-0.2616,-0.2608,-0.2567,-0.254,-0.2582,-0.2462,-0.2457,-0.2354,-0.2344,-0.2204,-0.2075,-0.2422,-0.242,-0.242,0,-0.2317,-0.2356,-0.2408,-0.2477,-0.2493,-0.2525,-0.2571,-0.2605,-0.2634,-0.2643,-0.2651,-0.2645,-0.2639,-0.2628,-0.2568,-0.2595,-0.2541,-0.2503,-0.2497,-0.2373,-0.2339,-0.2105,-0.2051,-0.2409,-0.241,-0.2411,-0.2411,0,-0.2275,-0.2352,-0.2391,-0.2416,-0.2497,-0.2521,-0.2559,-0.2604,-0.2624,-0.2652,-0.2653,-0.2652,-0.2629,-0.259,-0.2516,-0.2544,-0.242,-0.2445,-0.2291,-0.2282,-0.2125,-0.2102,-0.2388,-0.2389,-0.2389,-0.2389,-0.239,0,-0.2262,-0.2289,-0.2374,-0.2393,-0.2428,-0.2499,-0.2529,-0.2567,-0.261,-0.2615,-0.2656,-0.2632,-0.262,-0.2552,-0.2501,-0.2355,-0.2402,-0.2278,-0.2243,-0.2138,-0.2119,-0.2386,-0.2388,-0.2385,-0.2386,-0.2387,-0.2387,0,-0.2199,-0.2263,-0.2303,-0.2385,-0.2409,-0.2428,-0.2504,-0.2519,-0.2579,-0.2583,-0.2591,-0.2599,-0.2508,-0.246,-0.2362,-0.2304,-0.2199,-0.2132,-0.1992,-0.1942,-0.2082,-0.2088,-0.1962,-0.1957,-0.1953,-0.1949,-0.1947,0,-0.217,-0.2186,-0.2266,-0.228,-0.2312,-0.2361,-0.2385,-0.2477,-0.2494,-0.254,-0.252,-0.2466,-0.2369,-0.2186,-0.2077,-0.1935,-0.2041,-0.1742,-0.178,-0.2059,-0.2038,-0.205,-0.2061,-0.1586,-0.158,-0.1576,-0.1572,0,-0.209,-0.2118,-0.2145,-0.2179,-0.2209,-0.2245,-0.2293,-0.2309,-0.2398,-0.2389,-0.2335,-0.2262,-0.2107,-0.1879,-0.1723,-0.1643,-0.1764,-0.1643,-0.1952,-0.1723,-0.1697,-0.1679,-0.1704,-0.1531,-0.1536,-0.1539,-0.1541,-0.1542,-0.2004,-0.1997,-0.2032,-0.2048,-0.2084,-0.2097,-0.2073,-0.2119,-0.2106,-0.205,-0.2091,-0.1898,-0.1846,-0.1491,-0.1387,-0.1317,-0.1447,-0.1407,-0.1424,-0.1446,-0.1432,-0.1401,-0.1175,-0.1177,-0.1179,-0.118,-0.1181,0,-0.188,-0.1886,-0.1897,-0.1909,-0.1881,-0.1958,-0.1972,-0.1904,-0.1816,-0.1772,-0.1674,-0.1402,-0.1241,-0.1189,-0.1007,-0.0975,-0.1009,-0.0951,-0.101,-0.1049,-0.1084,-0.1057,-0.0697,-0.0696,-0.0695,-0.0693,0,0,-0.1815,-0.1772,-0.1777,-0.1689,-0.1698,-0.1622,-0.1595,-0.1489,-0.1414,-0.1226,-0.1092,-0.1134,-0.1122,-0.0894,-0.0861,-0.0745,-0.0892,-0.0707,-0.1093,-0.12,-0.1234,-0.134,-0.1339,0,0,0,0,0]},{"header":{"parameterUnit":"m.s-1","parameterCategory":2,"la1":30.2991,"la2":30.254,"lo1":-89.0895,"lo2":-89.0444,"dy":0.0017,"dx":0.0017,"nx":28,"ny":28,"refTime":"2025-05-01T09:00:00:Z","depth":"2","parameterNumber":3,"parameterNumberName":"V-component_of_CURRENTS"},"data":[0,0,0,0,0,0,0,0,0,0,0,0,0,0,0,0,0,0,0,0,0,0,0,0,0,0,0,0,0,0,0,0,0,0,0,0,0,0,0,0,0,0,0,0,0,0,0,0,0,0,0,0,0,0,0,0,0,0,-0.0331,-0.0331,0,-0.0258,-0.0257,-0.0256,-0.0202,-0.0202,-0.0202,-0.0201,-0.0084,-0.0081,-0.0078,0,0,0,0,0,0,0,0,0,0,0,0,0,-0.0378,-0.0378,-0.0332,-0.0331,-0.033,-0.0258,-0.0257,-0.0255,-0.0203,-0.0202,-0.0202,-0.0201,-0.0085,-0.0082,-0.0078,0,0,0,0,0,0,0,0,0,0,0,0,0,-0.0336,-0.0378,-0.0332,-0.0296,-0.0292,-0.0258,-0.0257,-0.0255,-0.0203,-0.0202,-0.0202,-0.0201,-0.0086,-0.0082,-0.0078,-0.0062,0,0,-0.0065,-0.0063,0,0,0,0,0,0,0,0,-0.0338,-0.0334,-0.0302,-0.0298,-0.0294,-0.024,-0.023,-0.0189,-0.0203,-0.0235,-0.0201,-0.0201,-0.0133,-0.0125,-0.0111,-0.0056,-0.0051,-0.0065,-0.0062,-0.006,-0.0059,0,0,0,0,0,0,0,-0.0341,-0.0337,-0.0301,-0.0301,-0.0296,-0.0267,-0.026,-0.0222,-0.0186,-0.0232,-0.0229,-0.0222,-0.013,-0.0116,-0.0108,-0.005,-0.0065,-0.0061,-0.0058,-0.0057,0.0043,0.0043,0,0,0,0,0,0,-0.0356,-0.034,-0.0303,-0.0299,-0.0316,-0.0266,-0.0259,-0.0257,-0.0188,-0.0177,-0.0223,-0.022,-0.0123,-0.0113,-0.0104,-0.007,-0.006,-0.0056,-0.0054,0.0043,0.0043,0.0043,0,0,0,0,0,0,-0.0357,-0.0353,-0.0306,-0.0318,-0.031,-0.0267,-0.0264,-0.0255,-0.024,-0.0181,-0.0169,-0.0216,-0.0122,-0.011,-0.007,-0.0065,-0.0054,-0.0051,0.0043,0.0043,0.0043,-0.0009,0,0,0,0,0,0,-0.0359,-0.0355,-0.0359,-0.0319,-0.031,-0.0294,-0.0264,-0.0254,-0.0238,-0.0233,-0.0172,-0.016,-0.0121,-0.0077,-0.0066,-0.0059,-0.0047,0.0043,0.0043,0.0043,-0.0008,-0.0011,-0.0013,0,0,0,0,0,-0.0361,-0.0373,-0.036,-0.0356,-0.0318,-0.0294,-0.0287,-0.0253,-0.0238,-0.0236,-0.0192,-0.0162,-0.0067,-0.0073,-0.0061,-0.0053,0.0043,0.0043,0.0043,-0.0006,-0.001,-0.0013,0,0,0,0,0,0,-0.0396,-0.0367,-0.0353,-0.0355,-0.033,-0.0286,-0.0282,-0.0259,-0.0223,-0.0218,-0.0161,-0.0146,-0.0111,-0.0076,-0.0084,-0.0023,-0.0007,-0.0004,-0.0049,-0.0052,-0.0055,-0.0066,-0.0044,0,0,0,0,0,-0.0407,-0.0408,-0.0373,-0.0375,-0.0366,-0.0325,-0.0312,-0.029,-0.0252,-0.0236,-0.0192,-0.0143,-0.01,-0.0073,-0.0034,-0.0,0.0045,0.0014,0.0011,0.0008,0.0008,0.0083,0.0087,0.0044,0.0044,0.0044,0,0,-0.0421,-0.0406,-0.0407,-0.0383,-0.036,-0.0353,-0.0316,-0.0302,-0.029,-0.0229,-0.0201,-0.0156,-0.0095,-0.0058,-0.0038,-0.0027,0.0043,0.0008,0.0005,0.0007,0.0084,0.0088,0.0092,0.0045,0.0044,0.0044,0,0,-0.0455,-0.0438,-0.0451,-0.0433,-0.0407,-0.0379,-0.0379,-0.0338,-0.0313,-0.0283,-0.0233,-0.0184,-0.0125,-0.0073,-0.0041,-0.0036,0.002,-0.0026,-0.0042,0.003,0.0034,0.0039,0.0094,0.0104,-0.0022,-0.0022,-0.0022,0,-0.0475,-0.0484,-0.0451,-0.0457,-0.0447,-0.0396,-0.0404,-0.0371,-0.0321,-0.0295,-0.0283,-0.0176,-0.013,-0.0064,-0.0064,-0.0041,0.0002,-0.0036,0.0026,0.0032,0.0037,0.0093,0.0105,-0.0025,-0.0024,-0.0024,-0.0024,0,-0.0516,-0.0521,-0.0527,-0.0517,-0.05,-0.0499,-0.0451,-0.0427,-0.0391,-0.0348,-0.0284,-0.0214,-0.0147,-0.0124,-0.0093,-0.003,-0.0012,0.0009,0.0033,0.0038,0.0097,0.011,-0.0028,-0.0027,-0.0027,-0.0026,0,0,-0.0565,-0.056,-0.0561,-0.0567,-0.0533,-0.0524,-0.0498,-0.0454,-0.0427,-0.0368,-0.0322,-0.0243,-0.0195,-0.0156,-0.0099,-0.0036,0.0034,-0.0005,0.0,0.0046,0.0185,0.0206,0.0222,0.0067,0.0069,0.007,0.0208,0,-0.0608,-0.0643,-0.0617,-0.0635,-0.0648,-0.059,-0.0566,-0.0515,-0.0457,-0.0398,-0.0305,-0.0245,-0.0208,-0.0172,-0.0104,0.0003,0.0066,-0.0006,0.0178,0.0183,0.0198,0.0238,0.0183,0.0303,0.0221,0.0224,0.0225,0,-0.0656,-0.0673,-0.071,-0.0696,-0.0693,-0.0688,-0.0634,-0.0605,-0.0503,-0.0454,-0.0369,-0.0291,-0.0184,-0.0159,0.0026,-0.0022,0.0071,0.0151,0.0159,0.0207,0.0228,0.0288,0.033,0.0247,0.0245,0.0244,0.0242,0,-0.0719,-0.0732,-0.0766,-0.0765,-0.0742,-0.0735,-0.071,-0.0626,-0.059,-0.0484,-0.0436,-0.0304,-0.0219,-0.0092,0.0071,0.0054,0.0276,0.0277,0.0385,0.0387,0.0391,0.0391,0.0406,0.0405,0.0405,0.0405,0.0404,0,-0.078,-0.0802,-0.0802,-0.0823,-0.0845,-0.0798,-0.0786,-0.0737,-0.0648,-0.0584,-0.0471,-0.0379,-0.0196,-0.0044,0.0078,0.0278,0.0288,0.0394,0.0433,0.037,0.0366,0.0356,0.0349,0.041,0.0409,0.0408,0.0407,0,-0.0846,-0.0847,-0.0887,-0.0883,-0.0882,-0.0898,-0.0854,-0.0831,-0.0739,-0.0648,-0.0613,-0.0417,-0.0209,-0.003,0.0206,0.0302,0.0474,0.0539,0.0444,0.047,0.053,0.0518,0.0672,0.0674,0.0676,0.0677,0.0679,0,-0.0885,-0.0916,-0.0946,-0.0973,-0.0977,-0.0984,-0.0978,-0.0898,-0.0854,-0.0655,-0.0608,-0.0384,-0.0198,0.0138,0.0334,0.0556,0.0554,0.0628,0.0587,0.054,0.0563,0.0548,0.0534,0.0571,0.0572,0.0572,0.0572,0,-0.0954,-0.0964,-0.0998,-0.106,-0.108,-0.1085,-0.106,-0.103,-0.0892,-0.0775,-0.056,-0.0391,-0.0062,0.0189,0.0455,0.0568,0.0582,0.064,0.0649,0.0504,0.0455,0.0473,0.0461,0.0574,0.0574,0.0574,0.0573,0.0573,-0.0995,-0.104,-0.1086,-0.1138,-0.1164,-0.1158,-0.113,-0.1046,-0.0935,-0.0697,-0.0541,-0.0252,-0.0048,0.0347,0.0509,0.0649,0.066,0.0679,0.0675,0.0671,0.0627,0.0583,0.0717,0.0718,0.0718,0.0719,0.0719,0,-0.1042,-0.1089,-0.1153,-0.1206,-0.1237,-0.1223,-0.1157,-0.1071,-0.0898,-0.0662,-0.0418,-0.0168,0.0114,0.0322,0.0547,0.0682,0.0647,0.069,0.061,0.0608,0.0606,0.0554,0.0627,0.0628,0.0628,0.0628,0,0,-0.1067,-0.1142,-0.1178,-0.1248,-0.1273,-0.1234,-0.1174,-0.1015,-0.0823,-0.0568,-0.0351,-0.0077,0.0154,0.0287,0.0435,0.0547,0.0543,0.0548,0.0606,0.049,0.0487,0.0583,0.0499,0,0,0,0,0]}],[{"header":{"parameterUnit":"m.s-1","parameterCategory":2,"la1":30.2991,"la2":30.254,"lo1":-89.0895,"lo2":-89.0444,"dy":0.0017,"dx":0.0017,"nx":28,"ny":28,"refTime":"2025-05-01T09:00:00:Z","depth":"4","parameterNumber":2,"parameterNumberName":"U-component_of_CURRENTS"},"data":[0,0,0,0,0,0,0,0,0,0,0,0,0,0,0,0,0,0,0,0,0,0,0,0,0,0,0,0,0,0,0,0,0,0,0,0,0,0,0,0,0,0,0,0,0,0,0,0,0,0,0,0,0,0,0,0,0,0,-0.1666,-0.1667,0,-0.1722,-0.1722,-0.1723,-0.1756,-0.1757,-0.1757,-0.1757,-0.1791,-0.1791,-0.1792,0,0,0,0,0,0,0,0,0,0,0,0,0,-0.1584,-0.1585,-0.1666,-0.1667,-0.1668,-0.1722,-0.1722,-0.1723,-0.1756,-0.1757,-0.1757,-0.1757,-0.179,-0.1791,-0.1792,0,0,0,0,0,0,0,0,0,0,0,0,0,-0.1626,-0.1586,-0.1666,-0.1692,-0.1695,-0.1721,-0.1722,-0.1723,-0.1756,-0.1757,-0.1757,-0.1758,-0.179,-0.1791,-0.1792,-0.1788,0,0,-0.1795,-0.1795,0,0,0,0,0,0,0,0,-0.1624,-0.1629,-0.1688,-0.1691,-0.1694,-0.1734,-0.1706,-0.1744,-0.1756,-0.1731,-0.1757,-0.1758,-0.177,-0.1773,-0.178,-0.1789,-0.1791,-0.1795,-0.1795,-0.1796,-0.1796,0,0,0,0,0,0,0,-0.1621,-0.1627,-0.1686,-0.1688,-0.1692,-0.17,-0.1706,-0.1713,-0.1746,-0.1733,-0.1736,-0.1745,-0.1772,-0.1779,-0.1781,-0.1791,-0.1795,-0.1795,-0.1796,-0.1796,-0.1866,-0.1867,0,0,0,0,0,0,-0.1617,-0.1624,-0.1685,-0.1688,-0.1661,-0.1701,-0.1708,-0.1719,-0.1746,-0.1751,-0.1745,-0.1747,-0.1778,-0.178,-0.1782,-0.1844,-0.1796,-0.1796,-0.1797,-0.1865,-0.1866,-0.1868,0,0,0,0,0,0,-0.1615,-0.1622,-0.1682,-0.1658,-0.1667,-0.1702,-0.1714,-0.172,-0.1756,-0.1755,-0.176,-0.1778,-0.1778,-0.1781,-0.1816,-0.1843,-0.1797,-0.1798,-0.1863,-0.1865,-0.1867,-0.1926,0,0,0,0,0,0,-0.1613,-0.1621,-0.1641,-0.1658,-0.1668,-0.1718,-0.1714,-0.1721,-0.1759,-0.1763,-0.1785,-0.1787,-0.1779,-0.1815,-0.1817,-0.1844,-0.1798,-0.1862,-0.1864,-0.1866,-0.1922,-0.1929,-0.1936,0,0,0,0,0,-0.1609,-0.1631,-0.1642,-0.165,-0.169,-0.1719,-0.1725,-0.175,-0.1761,-0.1783,-0.18,-0.1787,-0.1832,-0.1817,-0.1819,-0.1846,-0.186,-0.1863,-0.1866,-0.1919,-0.1928,-0.1935,0,0,0,0,0,0,-0.1608,-0.1638,-0.1649,-0.168,-0.1708,-0.1726,-0.1753,-0.1767,-0.1798,-0.1809,-0.1806,-0.1809,-0.1848,-0.1841,-0.1825,-0.1874,-0.1844,-0.1847,-0.1883,-0.1891,-0.1898,-0.1888,-0.1799,0,0,0,0,0,-0.1616,-0.1642,-0.1668,-0.1696,-0.1712,-0.1738,-0.1758,-0.1776,-0.1799,-0.1815,-0.1831,-0.1845,-0.1857,-0.1871,-0.188,-0.1909,-0.1877,-0.1928,-0.1935,-0.194,-0.1934,-0.1912,-0.1916,-0.1878,-0.1878,-0.1878,0,0,-0.1624,-0.1644,-0.166,-0.1698,-0.1722,-0.1751,-0.1752,-0.1793,-0.1822,-0.1812,-0.1865,-0.1872,-0.1871,-0.1903,-0.192,-0.1905,-0.1935,-0.1944,-0.1949,-0.1939,-0.1916,-0.1919,-0.1922,-0.188,-0.1879,-0.1879,0,0,-0.1642,-0.1672,-0.1697,-0.1724,-0.1766,-0.1781,-0.18,-0.1837,-0.1862,-0.1906,-0.1905,-0.1928,-0.1958,-0.1957,-0.1959,-0.2008,-0.1972,-0.2021,-0.205,-0.203,-0.2032,-0.2034,-0.1997,-0.1995,-0.2026,-0.2026,-0.2026,0,-0.1653,-0.1684,-0.171,-0.1741,-0.1766,-0.1798,-0.183,-0.1859,-0.1905,-0.1922,-0.1933,-0.1971,-0.1977,-0.1997,-0.202,-0.2022,-0.2,-0.2019,-0.2037,-0.2038,-0.2038,-0.2,-0.1997,-0.2029,-0.2029,-0.2028,-0.2028,0,-0.1678,-0.1717,-0.1737,-0.1783,-0.1815,-0.185,-0.1889,-0.1928,-0.1962,-0.1981,-0.2023,-0.2032,-0.2047,-0.2062,-0.2059,-0.2075,-0.2054,-0.2046,-0.2012,-0.2046,-0.2004,-0.1999,-0.2034,-0.2032,-0.2031,-0.2031,0,0,-0.1659,-0.1739,-0.1748,-0.1777,-0.1841,-0.1864,-0.1921,-0.1964,-0.1992,-0.204,-0.2063,-0.21,-0.2104,-0.2106,-0.2107,-0.21,-0.2094,-0.2086,-0.2083,-0.2042,-0.2039,-0.19,-0.1881,-0.2092,-0.2092,-0.2092,-0.2007,0,-0.167,-0.1729,-0.1768,-0.1828,-0.1858,-0.1909,-0.1951,-0.1998,-0.2035,-0.2067,-0.2084,-0.2109,-0.2121,-0.2132,-0.213,-0.2101,-0.2086,-0.2116,-0.2019,-0.2015,-0.1881,-0.1872,-0.2091,-0.2003,-0.2002,-0.2002,-0.2001,0,-0.167,-0.1711,-0.1771,-0.1844,-0.1863,-0.1907,-0.197,-0.2013,-0.2063,-0.209,-0.2119,-0.2128,-0.2138,-0.2138,-0.2101,-0.2123,-0.2088,-0.2061,-0.2057,-0.1899,-0.1867,-0.1963,-0.1992,-0.1993,-0.1994,-0.1994,-0.1995,0,-0.1621,-0.1708,-0.1755,-0.1783,-0.1871,-0.1911,-0.196,-0.2021,-0.2047,-0.2102,-0.2111,-0.2133,-0.2127,-0.2106,-0.2063,-0.2086,-0.1995,-0.2013,-0.185,-0.1839,-0.1967,-0.1966,-0.1972,-0.1972,-0.1973,-0.1973,-0.1973,0,-0.1593,-0.1634,-0.1743,-0.1767,-0.1816,-0.1894,-0.1943,-0.1993,-0.2048,-0.205,-0.2117,-0.2095,-0.212,-0.2074,-0.2048,-0.1915,-0.1978,-0.1835,-0.1801,-0.1994,-0.1997,-0.1963,-0.1963,-0.197,-0.197,-0.1971,-0.1971,0,-0.1519,-0.1598,-0.1652,-0.1759,-0.1795,-0.1829,-0.1923,-0.194,-0.2017,-0.2016,-0.203,-0.2058,-0.1994,-0.1984,-0.1923,-0.186,-0.1774,-0.1712,-0.1898,-0.188,-0.164,-0.1645,-0.1521,-0.1516,-0.1511,-0.1507,-0.1503,0,-0.148,-0.1505,-0.1623,-0.1651,-0.1704,-0.1774,-0.1805,-0.1907,-0.1913,-0.1961,-0.1927,-0.1908,-0.1904,-0.1689,-0.1719,-0.163,-0.1617,-0.1567,-0.1626,-0.161,-0.1591,-0.1604,-0.1614,-0.1495,-0.1494,-0.1493,-0.1492,0,-0.139,-0.1448,-0.1489,-0.1546,-0.1597,-0.1635,-0.1691,-0.1682,-0.1765,-0.1855,-0.1757,-0.1707,-0.1621,-0.157,-0.15,-0.1452,-0.1601,-0.1516,-0.1527,-0.1582,-0.1578,-0.1566,-0.1582,-0.1475,-0.1477,-0.1479,-0.148,0,-0.1314,-0.1317,-0.1377,-0.1408,-0.1469,-0.146,-0.1517,-0.1507,-0.1527,-0.1596,-0.1553,-0.1542,-0.1582,-0.1473,-0.1413,-0.1346,-0.134,-0.1309,-0.1331,-0.135,-0.1336,-0.1308,-0.107,0,0,0,0,0,-0.1224,-0.1207,-0.1229,-0.1246,-0.1298,-0.1319,-0.1411,-0.1469,-0.1556,-0.1435,-0.1491,-0.1407,-0.1313,-0.1319,-0.121,-0.1346,-0.1353,-0.1217,-0.1332,-0.138,-0.14,-0.14,0,0,0,0,0,0,-0.1163,-0.1177,-0.1175,-0.1098,-0.107,-0.1095,-0.1143,-0.1209,-0.116,-0.1261,-0.1213,-0.1296,-0.1225,-0.1319,-0.1162,-0.1165,-0.1205,-0.1233,-0.1229,-0.1369,-0.1387,-0.1403,-0.141,0,0,0,0,0]},{"header":{"parameterUnit":"m.s-1","parameterCategory":2,"la1":30.2991,"la2":30.254,"lo1":-89.0895,"lo2":-89.0444,"dy":0.0017,"dx":0.0017,"nx":28,"ny":28,"refTime":"2025-05-01T09:00:00:Z","depth":"4","parameterNumber":3,"parameterNumberName":"V-component_of_CURRENTS"},"data":[0,0,0,0,0,0,0,0,0,0,0,0,0,0,0,0,0,0,0,0,0,0,0,0,0,0,0,0,0,0,0,0,0,0,0,0,0,0,0,0,0,0,0,0,0,0,0,0,0,0,0,0,0,0,0,0,0,0,-0.0286,-0.0286,0,-0.0238,-0.0237,-0.0236,-0.0209,-0.0209,-0.0209,-0.0209,-0.0127,-0.0125,-0.0123,0,0,0,0,0,0,0,0,0,0,0,0,0,-0.0319,-0.0318,-0.0287,-0.0286,-0.0285,-0.0238,-0.0237,-0.0236,-0.0209,-0.0209,-0.0209,-0.0209,-0.0128,-0.0125,-0.0123,0,0,0,0,0,0,0,0,0,0,0,0,0,-0.029,-0.0318,-0.0287,-0.0267,-0.0264,-0.0238,-0.0237,-0.0236,-0.0209,-0.0209,-0.0209,-0.0209,-0.0129,-0.0125,-0.0122,-0.0103,0,0,-0.0112,-0.0111,0,0,0,0,0,0,0,0,-0.0292,-0.0289,-0.027,-0.0268,-0.0266,-0.023,-0.0218,-0.019,-0.0209,-0.0229,-0.0209,-0.0209,-0.0159,-0.0153,-0.0143,-0.0099,-0.0095,-0.0112,-0.011,-0.0109,-0.0108,0,0,0,0,0,0,0,-0.0294,-0.0291,-0.0266,-0.027,-0.0267,-0.0247,-0.0244,-0.0213,-0.0194,-0.0228,-0.0226,-0.0221,-0.0157,-0.0147,-0.0141,-0.0094,-0.0112,-0.0109,-0.0107,-0.0106,-0.0031,-0.0031,0,0,0,0,0,0,-0.0304,-0.0293,-0.0268,-0.0265,-0.028,-0.0247,-0.0243,-0.0241,-0.0195,-0.0188,-0.0221,-0.022,-0.0152,-0.0145,-0.0138,-0.012,-0.0109,-0.0106,-0.0104,-0.0031,-0.0031,-0.0031,0,0,0,0,0,0,-0.0304,-0.0302,-0.027,-0.0278,-0.0273,-0.0247,-0.0245,-0.024,-0.0233,-0.0191,-0.0183,-0.0221,-0.0152,-0.0143,-0.0115,-0.0117,-0.0104,-0.0101,-0.0031,-0.0031,-0.0031,-0.0079,0,0,0,0,0,0,-0.0306,-0.0303,-0.0308,-0.0279,-0.0273,-0.0261,-0.0245,-0.0239,-0.0231,-0.0229,-0.0187,-0.0179,-0.0151,-0.012,-0.0112,-0.0112,-0.0099,-0.0031,-0.0031,-0.0031,-0.0078,-0.0081,-0.0083,0,0,0,0,0,-0.0307,-0.0314,-0.0309,-0.0306,-0.028,-0.0261,-0.0257,-0.0237,-0.0231,-0.0231,-0.0202,-0.0181,-0.0114,-0.0118,-0.0108,-0.0107,-0.0031,-0.0031,-0.0031,-0.0076,-0.008,-0.0083,0,0,0,0,0,0,-0.0331,-0.0311,-0.0305,-0.0306,-0.0289,-0.0257,-0.0257,-0.0242,-0.0219,-0.0219,-0.0179,-0.0169,-0.0146,-0.0119,-0.0124,-0.0085,-0.0069,-0.0067,-0.0107,-0.011,-0.0113,-0.0127,-0.0096,0,0,0,0,0,-0.034,-0.0342,-0.0317,-0.032,-0.0313,-0.0287,-0.0278,-0.0265,-0.024,-0.023,-0.02,-0.0167,-0.0137,-0.0119,-0.009,-0.0066,-0.0035,-0.0059,-0.0062,-0.0065,-0.0069,-0.0021,-0.002,-0.003,-0.003,-0.003,0,0,-0.0351,-0.0341,-0.0342,-0.0325,-0.0311,-0.0308,-0.0282,-0.0274,-0.027,-0.0224,-0.0211,-0.0177,-0.0134,-0.011,-0.0097,-0.0088,-0.0046,-0.0065,-0.0068,-0.007,-0.0021,-0.002,-0.0019,-0.003,-0.003,-0.003,0,0,-0.0374,-0.0365,-0.0375,-0.0364,-0.0348,-0.0329,-0.033,-0.0301,-0.0289,-0.0269,-0.0236,-0.0204,-0.0161,-0.0128,-0.0106,-0.0105,-0.0066,-0.0097,-0.0118,-0.0072,-0.0071,-0.007,-0.0032,-0.0027,-0.0095,-0.0095,-0.0095,0,-0.039,-0.0399,-0.0374,-0.038,-0.0377,-0.0343,-0.0352,-0.0331,-0.0297,-0.0285,-0.0274,-0.0204,-0.0169,-0.0131,-0.0133,-0.0112,-0.0083,-0.0111,-0.0076,-0.0074,-0.0072,-0.0034,-0.0028,-0.0098,-0.0097,-0.0097,-0.0097,0,-0.0417,-0.0427,-0.0432,-0.0429,-0.042,-0.0423,-0.0392,-0.0381,-0.036,-0.0333,-0.0297,-0.0244,-0.0201,-0.0184,-0.0158,-0.0124,-0.0108,-0.0089,-0.0071,-0.0074,-0.0034,-0.0026,-0.0101,-0.01,-0.0099,-0.0099,0,0,-0.0448,-0.0453,-0.0456,-0.0469,-0.045,-0.0447,-0.0438,-0.0416,-0.0409,-0.0366,-0.0348,-0.029,-0.0256,-0.0229,-0.0186,-0.0144,-0.0103,-0.0115,-0.0112,-0.0084,-0.0006,-0.0017,-0.0009,-0.0078,-0.0077,-0.0076,0.0015,0,-0.0481,-0.0514,-0.0499,-0.0526,-0.0541,-0.0508,-0.0502,-0.0475,-0.0441,-0.0411,-0.0346,-0.0312,-0.0274,-0.0252,-0.0205,-0.0127,-0.0085,-0.013,-0.0001,0.0002,-0.0011,-0.0002,-0.0072,0.002,0.0022,0.0023,0.0024,0,-0.0513,-0.0533,-0.0573,-0.0585,-0.0586,-0.0594,-0.0579,-0.0567,-0.0508,-0.0478,-0.0424,-0.0368,-0.0298,-0.0268,-0.0138,-0.0168,-0.0097,-0.0036,-0.003,-0.0019,0.0005,0.0028,0.0038,0.0037,0.0036,0.0035,0.0034,0,-0.0555,-0.0582,-0.0622,-0.0627,-0.063,-0.0641,-0.0636,-0.0593,-0.058,-0.0518,-0.0496,-0.0402,-0.035,-0.0251,-0.0125,-0.0129,0.0019,0.0032,0.0091,0.0091,0.0095,0.0092,0.0119,0.0119,0.0119,0.0118,0.0118,0,-0.0595,-0.0626,-0.0652,-0.0675,-0.0717,-0.0694,-0.0713,-0.0689,-0.0644,-0.0618,-0.0537,-0.0487,-0.0342,-0.0237,-0.0132,0.0001,0.0017,0.0087,0.0115,0.0072,0.0066,0.01,0.0097,0.0122,0.0121,0.012,0.012,0,-0.0632,-0.065,-0.0701,-0.0729,-0.0742,-0.0772,-0.0776,-0.0777,-0.0728,-0.069,-0.0671,-0.0541,-0.0399,-0.0257,-0.008,-0.0008,0.0119,0.0162,0.0101,0.0124,0.0161,0.0154,0.0232,0.0233,0.0233,0.0233,0.0234,0,-0.0653,-0.0686,-0.0751,-0.0789,-0.0809,-0.0845,-0.0864,-0.083,-0.0814,-0.0713,-0.0691,-0.055,-0.0451,-0.0204,-0.0067,0.0126,0.0151,0.0204,0.0183,0.0154,0.0174,0.0166,0.0159,0.0234,0.0234,0.0234,0.0234,0,-0.0691,-0.0721,-0.0764,-0.0847,-0.0892,-0.0927,-0.0942,-0.0929,-0.0862,-0.0827,-0.0679,-0.0538,-0.0376,-0.0191,-0.0044,0.0092,0.016,0.0208,0.0208,0.0189,0.0157,0.0175,0.0167,0.0236,0.0235,0.0235,0.0235,0,-0.0717,-0.0761,-0.0823,-0.0888,-0.0953,-0.0978,-0.0981,-0.0932,-0.0898,-0.0767,-0.0717,-0.0527,-0.041,-0.0207,-0.007,0.0059,0.0087,0.0115,0.012,0.012,0.0054,-0.0004,0.005,0,0,0,0,0,-0.0733,-0.0782,-0.0854,-0.0924,-0.0988,-0.1013,-0.1015,-0.0996,-0.0928,-0.0825,-0.0759,-0.0597,-0.0356,-0.025,-0.0121,-0.0093,0.008,0.0058,0.0107,0.0242,0.0241,0.018,0,0,0,0,0,0,-0.0745,-0.0818,-0.0855,-0.0935,-0.098,-0.1034,-0.1029,-0.0983,-0.0907,-0.0818,-0.0685,-0.059,-0.0361,-0.0429,-0.0125,-0.0086,-0.0043,0.0176,0.0178,0.0243,0.0242,0.024,0.0178,0,0,0,0,0]}]]